Weather Service Report


227 
ASUS43 KOAX 212010
RWRNE 

WEATHER ROUNDUP FOR NEBRASKA
NATIONAL WEATHER SERVICE OMAHA NE
200 PM CST TUE FEB 21 2017

NOTES: SATELLITE DATA IS BEING USED TO AUGMENT CLOUD COVER ABOVE
       12000 FEET.
       "FAIR" INDICATES FEW OR NO CLOUDS BELOW 12,000 FEET WITH NO
       SIGNIFICANT WEATHER AND/OR OBSTRUCTIONS TO VISIBILITY.

  * THESE STATIONS DO NOT REPORT WEATHER SUCH AS RAIN...SNOW OR FOG.
   
NEZ001>004-019>022-054>056-212100-
NEBRASKA PANHANDLE
  
CITY           SKY/WX    TMP DP  RH WIND       PRES   REMARKS
SCOTTSBLUFF    SUNNY     72  22  15 W33G43    29.87F                  
ALLIANCE       SUNNY     72  23  16 W32G45    29.84F                  
CHADRON        SUNNY     71  29  21 W31G45    29.80F                  
KIMBALL        SUNNY     70  26  19 W36G43    29.93F                  
SIDNEY         SUNNY     73  19  13 W30G40    29.92F                  
$$
 
NEZ057>060-069>072-079>082-212100-
SOUTHWEST NEBRASKA
  
CITY           SKY/WX    TMP DP  RH WIND       PRES   REMARKS
NORTH PLATTE   SUNNY     76  29  17 W17G25    29.88F                  
IMPERIAL       SUNNY     75  21  13 W20G26    29.91F                  
LEXINGTON      SUNNY     75  29  17 W18G28    29.88F                  
MCCOOK         SUNNY     79  27  14 W17G26    29.89F                  
OGALLALA       SUNNY     78  23  13 W20G38    29.87F                  
$$
 
NEZ005>010-023>029-035>040-094-212100-
NORTH CENTRAL NEBRASKA
  
CITY           SKY/WX    TMP DP  RH WIND       PRES   REMARKS
VALENTINE      SUNNY     73  30  20 W24G32    29.76F                  
AINSWORTH      SUNNY     72  35  25 W22G33    29.78F                  
BROKEN BOW     SUNNY     74  32  21 W17G26    29.84F                  
O'NEILL        SUNNY     75  31  20 SW15G21   29.77F                  
ORD            SUNNY     76  27  16 W17       29.81F                  
THEDFORD       SUNNY     74  33  22 W25G33    29.84F                  
$$
 
NEZ041-046>049-061>064-073>077-083>087-212100-
SOUTH CENTRAL NEBRASKA
  
CITY           SKY/WX    TMP DP  RH WIND       PRES   REMARKS
GRAND ISLAND   SUNNY     73  28  18 SW22G29   29.86F                  
AURORA         SUNNY     72  28  19 SW26      29.87F                  
HASTINGS       SUNNY     73  25  16 SW16G29   29.89F                  
HEBRON         SUNNY     72  26  18 SW14G21   29.90F                  
HOLDREGE       SUNNY     75  25  15 W14G22    29.88F                  
KEARNEY *      SUNNY     73  27  17 SW15      29.87F                  
YORK           SUNNY     72  28  20 SW21G28   29.87F                  
$$
 
NEZ011>018-030>034-042>045-212100-
NORTHEAST NEBRASKA
  
CITY           SKY/WX    TMP DP  RH WIND       PRES   REMARKS
NORFOLK        SUNNY     71  28  20 SW25G32   29.80F                  
ALBION         SUNNY     74  20  13 SW22      29.81F                  
BLAIR          SUNNY     69  38  32 SW17G25   29.88F                  
FREMONT        SUNNY     71  33  24 SW15G24   29.86F                  
TEKAMAH        SUNNY     70  38  31 SW24      29.84F                  
WAYNE          SUNNY     70  33  25 SW24G32   29.79F                  
$$

NEZ050>053-065>068-078-088>093-212100-
SOUTHEAST NEBRASKA
  
CITY           SKY/WX    TMP DP  RH WIND       PRES   REMARKS
LINCOLN        SUNNY     73  30  20 SW17G26   29.89F                  
OMAHA EPPLEY   SUNNY     68  40  35 S10       29.88F                  
BEATRICE       SUNNY     72  31  22 SW15G21   29.91F                  
FALLS CITY     SUNNY     67  36  31 MISG      29.93F                  
NEBRASKA CITY  SUNNY     67  28  23 SW12      29.92F                  
PLATTSMOUTH    SUNNY     68  31  26 S13       29.91F                  
$$

NEZ044-045-051>053-067-212100-
OMAHA AREA
  
CITY           SKY/WX    TMP DP  RH WIND       PRES   REMARKS
OMAHA EPPLEY   SUNNY     68  40  35 S10       29.88F                  
BLAIR          SUNNY     69  38  32 SW17G25   29.88F                  
FREMONT        SUNNY     71  33  24 SW15G24   29.86F                  
MILLARD        SUNNY     72  35  26 S12       29.88F                  
OFFUTT AFB     SUNNY     67  41  38 S8        29.89F                  
PLATTSMOUTH    SUNNY     68  31  26 S13       29.91F                  
WAHOO          FAIR      72  32  22 SW16G23   29.87F                  
$$
  

Return to Home page


Western Regional Climate Center, wrcc@dri.edu